Nenana, AK

9:07 AM AKDT on October 19, 2017 (GMT -0800)
Nenana Municipal

Weather History for PANN - October, 2012

Change the Weather History Date:

Sunday, October 14, 2012

  Actual Average Record
Temperature  
Mean Temperature 39 °F -  
Max Temperature 55 °F 34 °F 64 °F (1969)
Min Temperature 23 °F 20 °F 0 °F (1994)
Degree Days  
Heating Degree Days 26    
Moisture  
Dew Point 18 °F    
Average Humidity 70    
Maximum Humidity 90    
Minimum Humidity 60    
Precipitation  
Precipitation 0.31 in - - ()
Sea Level Pressure  
Sea Level Pressure 29.30 in    
Wind  
Wind Speed 3 mph (NNW)    
Max Wind Speed 18 mph    
Max Gust Speed -    
Visibility 9 miles    
Events Rain , Snow    
Averages and records for this station are not official NWS values.
T = Trace of Precipitation, MM = Missing Value Source: NWS Daily Summary

Daily Weather History Graph

Daily Weather History Graph

Search for Another Location

Airport or City:

Trip Planner

Search our weather history database for the weather conditions in past years. The results will help you decide how hot, cold, wet, or windy it might be!

Date:

Astronomy

Oct. 14, 2012 Rise Set
Actual Time 8:46 AM AKDT 6:35 PM AKDT
Civil Twilight 7:57 AM AKDT 7:25 PM AKDT
Nautical Twilight 7:01 AM AKDT 8:21 PM AKDT
Astronomical Twilight 6:03 AM AKDT 9:18 PM AKDT
Moon 7:57 AM AKDT (10/14) 5:52 PM AKDT (10/14)
Length of Visible Light 11h 27m
Length of Day
9h 49m
Waning Crescent, 1% of the Moon is Illuminated
Oct 14
Waning Crescent
Oct 15
New
Oct 21
First Quarter
Oct 29
Full
Nov 6
Last Quarter

Hourly Weather History & Observations

Time (AKDT) Temp. Windchill Dew Point Humidity Pressure Visibility Wind Dir Wind Speed Gust Speed Precip Events Conditions
12:53 AM 21.9 °F - 12.9 °F 68% 29.41 in 5.0 mi Calm Calm - 0.00 in Snow Light Snow
1:33 AM 21.2 °F - 14.0 °F 74% 29.37 in 2.0 mi Calm Calm - 0.01 in Snow Light Snow
1:43 AM 21.2 °F - 14.0 °F 74% 29.37 in 4.0 mi Calm Calm - 0.01 in Snow Light Snow
1:53 AM 21.0 °F 16.2 °F 14.0 °F 74% 29.40 in 3.0 mi WNW 3.5 mph - 0.01 in Snow Light Snow
2:26 AM 21.2 °F - 14.0 °F 74% 29.35 in 4.0 mi Calm Calm - 0.00 in Snow Light Snow
2:53 AM 21.0 °F - 15.1 °F 78% 29.38 in 10.0 mi Calm Calm - 0.00 in   Overcast
3:53 AM 21.9 °F 17.2 °F 14.0 °F 72% 29.37 in 10.0 mi WNW 3.5 mph - N/A   Overcast
4:53 AM 21.9 °F - 12.9 °F 68% 29.35 in 10.0 mi Calm Calm - N/A   Overcast
5:05 AM 21.2 °F 16.4 °F 12.2 °F 68% 29.31 in 10.0 mi NW 3.5 mph - N/A   Overcast
5:53 AM 23.0 °F 18.4 °F 14.0 °F 68% 29.33 in 10.0 mi NNW 3.5 mph - N/A   Overcast
6:53 AM 23.0 °F - 14.0 °F 68% 29.32 in 10.0 mi Calm Calm - N/A   Overcast
7:53 AM 24.1 °F - 14.0 °F 65% 29.31 in 10.0 mi Calm Calm - N/A   Overcast
8:53 AM 24.1 °F 19.7 °F 12.9 °F 62% 29.30 in 10.0 mi North 3.5 mph - N/A   Overcast
9:53 AM 24.1 °F 19.7 °F 12.9 °F 62% 29.30 in 10.0 mi NNW 3.5 mph - N/A   Overcast
10:53 AM 24.1 °F 18.2 °F 12.9 °F 62% 29.29 in 10.0 mi North 4.6 mph - N/A   Overcast
11:53 AM 24.1 °F 18.2 °F 12.9 °F 62% 29.29 in 10.0 mi NW 4.6 mph - N/A   Overcast
12:53 PM 25.0 °F 20.7 °F 12.9 °F 60% 29.29 in 10.0 mi NNW 3.5 mph - N/A   Overcast
1:53 PM 25.0 °F 19.3 °F 12.9 °F 60% 29.28 in 10.0 mi NNW 4.6 mph - N/A   Overcast
2:53 PM 25.0 °F 18.1 °F 14.0 °F 63% 29.28 in 10.0 mi NNW 5.8 mph - N/A   Overcast
3:53 PM 26.1 °F 20.5 °F 14.0 °F 60% 29.27 in 10.0 mi NW 4.6 mph - N/A   Overcast
4:53 PM 26.1 °F 21.9 °F 14.0 °F 60% 29.27 in 6.0 mi NNW 3.5 mph - 0.00 in Snow Light Snow
5:53 PM 25.0 °F - 15.1 °F 66% 29.27 in 8.0 mi Calm Calm - 0.00 in Snow Light Snow
6:53 PM 24.1 °F - 17.1 °F 75% 29.28 in 6.0 mi Calm Calm - 0.00 in Snow Light Snow
7:53 PM 24.1 °F 19.7 °F 17.1 °F 75% 29.28 in 10.0 mi NNW 3.5 mph - 0.00 in   Overcast
8:53 PM 23.0 °F 17.0 °F 16.0 °F 74% 29.28 in 10.0 mi NW 4.6 mph - N/A   Overcast
9:53 PM 23.0 °F 15.8 °F 15.1 °F 72% 29.27 in 10.0 mi Variable 5.8 mph - N/A   Overcast
10:53 PM 23.0 °F 15.8 °F 14.0 °F 68% 29.27 in 10.0 mi North 5.8 mph - 0.00 in   Overcast
11:53 PM 23.0 °F 17.0 °F 15.1 °F 72% 29.28 in 10.0 mi NW 4.6 mph - 0.00 in   Overcast